QPF
0.01 0.01 0.01 0.01 0.01 0.01 0.01 0.00 0.01 0.01 0.00 0.00 0.01 0.01 0.01 0.01 0.01 0.02 0.03 0.02 0.02 0.02 0.01 0.00 0.01 0.02 0.02 0.02 0.03 0.04 0.04 0.04 0.04 0.04 0.04 0.04 0.03 0.03
0.01 0.01 0.01 0.01 0.01 0.00 0.00 0.00 0.00 0.00 0.00 0.00 0.00 0.01 0.01 0.01 0.01 0.01 0.02 0.02 0.03 0.03 0.01 0.00 0.00 0.01 0.02 0.02 0.02 0.02 0.02 0.04 0.04 0.03 0.03 0.04 0.05 0.04
0.01 0.01 0.01 0.01 0.00 0.01 0.01 0.00 0.00 0.00 0.00 0.00 0.00 0.00 0.01 0.01 0.01 0.01 0.01 0.03 0.03 0.03 0.01 0.01 0.01 0.01 0.01 0.01 0.01 0.01 0.01 0.02 0.03 0.04 0.03 0.04 0.05 0.06
0.01 0.01 0.01 0.01 0.01 0.00 0.01 0.00 0.01 0.01 0.01 0.00 0.00 0.00 0.00 0.01 0.01 0.01 0.01 0.02 0.03 0.03 0.01 0.01 0.00 0.00 0.00 0.00 0.00 0.01 0.01 0.01 0.02 0.04 0.04 0.05 0.05 0.05
0.02 0.01 0.01 0.00 0.00 0.01 0.01 0.00 0.00 0.00 0.00 0.00 0.00 0.00 0.00 0.00 0.01 0.01 0.01 0.02 0.04 0.03 0.02 0.01 0.01 0.01 0.00 0.00 0.00 0.01 0.01 0.01 0.01 0.03 0.05 0.05 0.05 0.05
0.02 0.01 0.01 0.01 0.01 0.01 0.01 0.00 0.00 0.00 0.00 0.00 0.00 0.00 0.00 0.01 0.01 0.01 0.01 0.02 0.05 0.04 0.02 0.02 0.01 0.01 0.01 0.01 0.01 0.01 0.01 0.01 0.01 0.01 0.03 0.05 0.05 0.04
0.02 0.02 0.02 0.01 0.02 0.02 0.02 0.01 0.01 0.00 0.00 0.00 0.00 0.00 0.01 0.01 0.01 0.01 0.01 0.02 0.05 0.03 0.02 0.02 0.01 0.01 0.01 0.02 0.02 0.02 0.03 0.02 0.02 0.01 0.02 0.04 0.05 0.05
0.03 0.02 0.03 0.02 0.01 0.02 0.02 0.02 0.01 0.01 0.00 0.00 0.00 0.00 0.01 0.02 0.03 0.02 0.02 0.03 0.05 0.03 0.01 0.02 0.02 0.02 0.02 0.02 0.03 0.03 0.04 0.04 0.03 0.02 0.03 0.03 0.04 0.04
0.03 0.03 0.02 0.02 0.02 0.02 0.02 0.02 0.01 0.01 0.00 0.00 0.00 0.00 0.00 0.01 0.03 0.03 0.02 0.03 0.04 0.03 0.02 0.01 0.02 0.03 0.02 0.02 0.04 0.03 0.04 0.04 0.04 0.03 0.03 0.03 0.04 0.05
0.03 0.03 0.02 0.02 0.03 0.04 0.03 0.02 0.01 0.01 0.01 0.00 0.00 0.00 0.00 0.01 0.02 0.03 0.04 0.03 0.02 0.02 0.02 0.01 0.02 0.02 0.03 0.04 0.04 0.05 0.05 0.05 0.05 0.05 0.04 0.03 0.03 0.05
0.02 0.02 0.02 0.02 0.03 0.04 0.03 0.01 0.01 0.01 0.01 0.00 0.00 0.00 0.00 0.00 0.02 0.03 0.03 0.03 0.02 0.03 0.02 0.01 0.02 0.03 0.04 0.04 0.05 0.06 0.05 0.04 0.04 0.06 0.06 0.04 0.04 0.04
0.02 0.02 0.02 0.02 0.03 0.05 0.04 0.02 0.01 0.01 0.00 0.00 0.00 0.00 0.00 0.00 0.01 0.02 0.02 0.02 0.02 0.04 0.03 0.01 0.01 0.02 0.04 0.04 0.04 0.06 0.05 0.04 0.04 0.05 0.06 0.05 0.05 0.04
0.03 0.02 0.02 0.02 0.03 0.04 0.03 0.02 0.02 0.02 0.01 0.01 0.00 0.00 0.00 0.00 0.01 0.01 0.01 0.02 0.02 0.03 0.05 0.02 0.01 0.01 0.02 0.03 0.03 0.03 0.03 0.04 0.04 0.04 0.05 0.04 0.04 0.04
0.05 0.02 0.02 0.02 0.02 0.02 0.02 0.02 0.04 0.04 0.03 0.02 0.02 0.01 0.01 0.00 0.01 0.01 0.01 0.01 0.02 0.02 0.04 0.03 0.01 0.01 0.01 0.01 0.02 0.02 0.02 0.02 0.04 0.05 0.05 0.04 0.03 0.04
0.06 0.04 0.02 0.02 0.02 0.01 0.02 0.03 0.04 0.03 0.03 0.03 0.02 0.01 0.01 0.01 0.02 0.01 0.01 0.01 0.01 0.02 0.03 0.04 0.03 0.02 0.02 0.01 0.01 0.01 0.01 0.01 0.02 0.03 0.04 0.04 0.03 0.03
0.06 0.05 0.03 0.02 0.02 0.01 0.02 0.03 0.03 0.03 0.04 0.03 0.03 0.02 0.02 0.03 0.03 0.02 0.02 0.02 0.01 0.01 0.02 0.04 0.04 0.03 0.03 0.02 0.02 0.01 0.01 0.01 0.01 0.02 0.03 0.03 0.03 0.03
0.07 0.06 0.04 0.03 0.01 0.01 0.01 0.01 0.01 0.02 0.03 0.03 0.03 0.03 0.03 0.04 0.04 0.02 0.02 0.02 0.01 0.01 0.02 0.03 0.04 0.03 0.03 0.02 0.02 0.02 0.02 0.02 0.02 0.02 0.03 0.03 0.02 0.02
0.09 0.06 0.04 0.04 0.03 0.01 0.01 0.01 0.01 0.02 0.02 0.02 0.03 0.04 0.05 0.05 0.05 0.04 0.02 0.01 0.02 0.01 0.01 0.02 0.04 0.04 0.03 0.02 0.01 0.01 0.02 0.02 0.02 0.01 0.01 0.02 0.01 0.01
0.11 0.07 0.04 0.03 0.04 0.03 0.01 0.01 0.01 0.01 0.01 0.02 0.03 0.04 0.06 0.06 0.06 0.05 0.03 0.02 0.02 0.02 0.01 0.02 0.03 0.04 0.03 0.02 0.02 0.01 0.01 0.01 0.02 0.01 0.01 0.01 0.01 0.01
0.09 0.08 0.05 0.03 0.03 0.03 0.03 0.02 0.01 0.02 0.02 0.02 0.02 0.03 0.05 0.06 0.06 0.06 0.03 0.02 0.02 0.02 0.02 0.02 0.02 0.03 0.03 0.03 0.02 0.01 0.01 0.01 0.01 0.01 0.01 0.01 0.01 0.01
0.06 0.06 0.05 0.05 0.04 0.04 0.04 0.03 0.03 0.03 0.03 0.03 0.03 0.04 0.04 0.05 0.05 0.05 0.04 0.04 0.04 0.03 0.03 0.02 0.03 0.03 0.03 0.02 0.01 0.01 0.01 0.01 0.02 0.01 0.01 0.01 0.01 0.01
0.07 0.05 0.04 0.04 0.04 0.03 0.03 0.03 0.04 0.03 0.03 0.03 0.03 0.04 0.04 0.05 0.05 0.04 0.04 0.04 0.04 0.04 0.04 0.04 0.03 0.02 0.02 0.02 0.01 0.01 0.01 0.01 0.02 0.02 0.02 0.01 0.01 0.01
0.05 0.06 0.05 0.04 0.03 0.02 0.02 0.02 0.02 0.03 0.03 0.03 0.03 0.03 0.03 0.03 0.04 0.04 0.04 0.04 0.04 0.03 0.03 0.04 0.04 0.03 0.03 0.03 0.02 0.02 0.01 0.01 0.01 0.01 0.01 0.01 0.01 0.01
MSLP
1024.14 1024.19 1024.31 1024.48 1024.69 1024.92 1025.16 1025.38 1025.59 1025.77 1025.93 1026.06 1026.15 1026.22 1026.25 1026.23 1026.17 1026.06 1025.90 1025.71 1025.49 1025.26 1025.02 1024.80 1024.60 1024.43 1024.27 1024.14 1024.01 1023.89 1023.78 1023.67 1023.57 1023.48 1023.41 1023.36 1023.33 1023.32
1023.94 1023.95 1024.01 1024.12 1024.26 1024.44 1024.63 1024.84 1025.05 1025.27 1025.48 1025.69 1025.87 1026.03 1026.14 1026.21 1026.22 1026.18 1026.09 1025.95 1025.80 1025.63 1025.47 1025.32 1025.18 1025.05 1024.94 1024.82 1024.69 1024.56 1024.42 1024.28 1024.15 1024.04 1023.97 1023.92 1023.91 1023.92
1023.72 1023.69 1023.69 1023.74 1023.83 1023.95 1024.11 1024.30 1024.53 1024.78 1025.05 1025.32 1025.59 1025.83 1026.02 1026.16 1026.23 1026.24 1026.20 1026.11 1026.00 1025.89 1025.78 1025.69 1025.60 1025.53 1025.45 1025.37 1025.26 1025.13 1024.99 1024.84 1024.71 1024.60 1024.52 1024.49 1024.49 1024.52
1023.48 1023.39 1023.35 1023.34 1023.38 1023.46 1023.59 1023.78 1024.02 1024.30 1024.62 1024.96 1025.29 1025.60 1025.87 1026.06 1026.19 1026.24 1026.24 1026.18 1026.11 1026.03 1025.96 1025.90 1025.87 1025.84 1025.80 1025.75 1025.67 1025.57 1025.44 1025.31 1025.19 1025.09 1025.03 1025.01 1025.03 1025.08
1023.21 1023.08 1022.97 1022.92 1022.91 1022.96 1023.07 1023.25 1023.50 1023.81 1024.17 1024.56 1024.95 1025.32 1025.64 1025.89 1026.06 1026.15 1026.17 1026.15 1026.10 1026.04 1026.00 1025.97 1025.96 1025.96 1025.96 1025.94 1025.90 1025.83 1025.73 1025.63 1025.54 1025.47 1025.43 1025.44 1025.48 1025.55
1022.96 1022.75 1022.59 1022.47 1022.41 1022.42 1022.51 1022.68 1022.93 1023.26 1023.65 1024.07 1024.50 1024.92 1025.28 1025.57 1025.79 1025.91 1025.97 1025.98 1025.95 1025.92 1025.89 1025.88 1025.89 1025.91 1025.92 1025.93 1025.92 1025.88 1025.83 1025.77 1025.71 1025.69 1025.69 1025.73 1025.80 1025.90
1022.74 1022.45 1022.21 1022.02 1021.91 1021.87 1021.92 1022.07 1022.30 1022.62 1023.00 1023.43 1023.89 1024.33 1024.72 1025.06 1025.32 1025.50 1025.60 1025.65 1025.66 1025.65 1025.64 1025.65 1025.66 1025.69 1025.71 1025.73 1025.74 1025.73 1025.71 1025.69 1025.69 1025.71 1025.76 1025.85 1025.97 1026.10
1022.61 1022.21 1021.88 1021.61 1021.43 1021.33 1021.32 1021.41 1021.59 1021.87 1022.22 1022.63 1023.08 1023.52 1023.95 1024.32 1024.63 1024.86 1025.03 1025.14 1025.20 1025.24 1025.26 1025.29 1025.31 1025.33 1025.36 1025.37 1025.39 1025.40 1025.41 1025.43 1025.48 1025.55 1025.66 1025.80 1025.97 1026.14
1022.58 1022.08 1021.65 1021.29 1021.01 1020.83 1020.74 1020.75 1020.85 1021.05 1021.34 1021.70 1022.10 1022.53 1022.96 1023.36 1023.72 1024.03 1024.27 1024.46 1024.60 1024.70 1024.77 1024.82 1024.85 1024.88 1024.89 1024.91 1024.92 1024.93 1024.97 1025.02 1025.11 1025.24 1025.40 1025.60 1025.82 1026.04
1022.68 1022.09 1021.56 1021.11 1020.74 1020.45 1020.26 1020.16 1020.16 1020.25 1020.43 1020.70 1021.04 1021.42 1021.83 1022.25 1022.65 1023.02 1023.35 1023.64 1023.86 1024.04 1024.17 1024.27 1024.33 1024.36 1024.37 1024.38 1024.38 1024.40 1024.44 1024.52 1024.65 1024.82 1025.03 1025.27 1025.54 1025.80
1022.94 1022.27 1021.66 1021.12 1020.66 1020.27 1019.96 1019.74 1019.61 1019.57 1019.62 1019.77 1020.00 1020.31 1020.68 1021.09 1021.51 1021.94 1022.34 1022.72 1023.04 1023.30 1023.51 1023.66 1023.75 1023.81 1023.83 1023.83 1023.83 1023.85 1023.90 1023.99 1024.14 1024.33 1024.58 1024.86 1025.16 1025.46
1023.35 1022.62 1021.96 1021.35 1020.81 1020.33 1019.92 1019.58 1019.31 1019.12 1019.03 1019.03 1019.14 1019.34 1019.63 1020.00 1020.42 1020.87 1021.32 1021.76 1022.16 1022.50 1022.79 1023.00 1023.14 1023.22 1023.27 1023.28 1023.28 1023.30 1023.36 1023.46 1023.61 1023.82 1024.08 1024.38 1024.69 1024.99
1023.87 1023.14 1022.45 1021.81 1021.22 1020.67 1020.17 1019.72 1019.32 1019.00 1018.75 1018.60 1018.56 1018.63 1018.82 1019.10 1019.47 1019.90 1020.36 1020.83 1021.28 1021.68 1022.02 1022.29 1022.48 1022.61 1022.68 1022.71 1022.73 1022.76 1022.82 1022.92 1023.08 1023.29 1023.54 1023.82 1024.12 1024.42
1024.49 1023.78 1023.11 1022.47 1021.86 1021.28 1020.72 1020.19 1019.69 1019.23 1018.85 1018.55 1018.35 1018.27 1018.32 1018.48 1018.75 1019.11 1019.52 1019.97 1020.42 1020.85 1021.22 1021.52 1021.76 1021.93 1022.04 1022.10 1022.15 1022.20 1022.27 1022.37 1022.52 1022.71 1022.94 1023.19 1023.46 1023.71
1025.15 1024.50 1023.88 1023.28 1022.69 1022.11 1021.53 1020.95 1020.38 1019.83 1019.32 1018.88 1018.53 1018.30 1018.18 1018.18 1018.31 1018.54 1018.86 1019.23 1019.62 1020.02 1020.38 1020.70 1020.96 1021.16 1021.30 1021.41 1021.49 1021.57 1021.65 1021.76 1021.90 1022.06 1022.25 1022.46 1022.67 1022.87
1025.83 1025.26 1024.72 1024.18 1023.65 1023.10 1022.53 1021.94 1021.34 1020.73 1020.13 1019.58 1019.09 1018.69 1018.40 1018.22 1018.17 1018.23 1018.39 1018.63 1018.91 1019.22 1019.53 1019.82 1020.07 1020.28 1020.46 1020.60 1020.71 1020.82 1020.93 1021.04 1021.17 1021.32 1021.47 1021.62 1021.77 1021.90
1026.47 1026.01 1025.56 1025.11 1024.65 1024.16 1023.64 1023.07 1022.46 1021.83 1021.18 1020.54 1019.94 1019.39 1018.93 1018.57 1018.32 1018.18 1018.14 1018.19 1018.31 1018.49 1018.69 1018.91 1019.12 1019.31 1019.49 1019.65 1019.80 1019.94 1020.07 1020.19 1020.32 1020.44 1020.56 1020.67 1020.75 1020.82
1027.05 1026.69 1026.34 1025.98 1025.61 1025.20 1024.74 1024.23 1023.65 1023.03 1022.36 1021.67 1020.99 1020.33 1019.72 1019.18 1018.72 1018.37 1018.11 1017.94 1017.87 1017.86 1017.92 1018.02 1018.14 1018.29 1018.44 1018.60 1018.75 1018.91 1019.06 1019.20 1019.32 1019.44 1019.53 1019.60 1019.65 1019.68
1027.54 1027.27 1027.01 1026.75 1026.46 1026.13 1025.75 1025.31 1024.79 1024.21 1023.55 1022.85 1022.12 1021.37 1020.65 1019.95 1019.32 1018.76 1018.28 1017.90 1017.60 1017.39 1017.27 1017.21 1017.21 1017.27 1017.36 1017.48 1017.62 1017.77 1017.92 1018.07 1018.20 1018.31 1018.40 1018.46 1018.49 1018.49
1027.91 1027.72 1027.55 1027.36 1027.15 1026.90 1026.60 1026.23 1025.79 1025.26 1024.65 1023.97 1023.22 1022.44 1021.63 1020.83 1020.05 1019.32 1018.65 1018.05 1017.54 1017.12 1016.79 1016.55 1016.40 1016.32 1016.31 1016.36 1016.45 1016.56 1016.70 1016.83 1016.97 1017.08 1017.17 1017.24 1017.27 1017.29
1028.15 1028.02 1027.91 1027.78 1027.64 1027.47 1027.24 1026.94 1026.57 1026.11 1025.56 1024.92 1024.21 1023.42 1022.59 1021.72 1020.85 1019.99 1019.16 1018.38 1017.68 1017.06 1016.53 1016.10 1015.77 1015.54 1015.39 1015.32 1015.31 1015.36 1015.45 1015.55 1015.67 1015.78 1015.88 1015.96 1016.02 1016.06
1028.22 1028.15 1028.08 1028.01 1027.91 1027.79 1027.63 1027.40 1027.10 1026.71 1026.23 1025.66 1025.00 1024.25 1023.43 1022.55 1021.63 1020.70 1019.77 1018.86 1018.01 1017.22 1016.51 1015.89 1015.37 1014.96 1014.64 1014.42 1014.29 1014.24 1014.24 1014.29 1014.37 1014.47 1014.57 1014.66 1014.75 1014.83
1028.13 1028.09 1028.05 1028.01 1027.96 1027.89 1027.77 1027.60 1027.36 1027.04 1026.64 1026.15 1025.56 1024.87 1024.10 1023.25 1022.35 1021.39 1020.42 1019.44 1018.48 1017.56 1016.70 1015.92 1015.22 1014.63 1014.13 1013.75 1013.46 1013.27 1013.16 1013.12 1013.14 1013.19 1013.28 1013.37 1013.48 1013.58
Thickness
5651 5650 5647 5646 5644 5642 5640 5637 5631 5626 5626 5629 5631 5633 5634 5635 5635 5635 5635 5636 5636 5636 5635 5635 5635 5635 5635 5636 5637 5637 5638 5638 5639 5639 5639 5639 5640 5640
5645 5644 5642 5640 5639 5637 5635 5633 5631 5627 5622 5624 5625 5627 5628 5629 5629 5628 5629 5629 5629 5629 5629 5628 5629 5629 5629 5629 5630 5630 5631 5632 5632 5632 5632 5633 5633 5633
5640 5638 5637 5636 5634 5632 5630 5628 5626 5624 5619 5619 5620 5621 5622 5622 5623 5623 5623 5623 5623 5623 5623 5622 5622 5622 5623 5623 5623 5623 5624 5625 5625 5626 5626 5627 5627 5627
5635 5634 5632 5631 5629 5627 5625 5623 5622 5621 5617 5614 5614 5615 5615 5616 5616 5616 5617 5617 5617 5617 5616 5616 5616 5616 5616 5617 5617 5617 5618 5618 5619 5619 5620 5621 5621 5621
5631 5629 5627 5625 5623 5622 5620 5619 5617 5617 5614 5611 5609 5609 5609 5610 5610 5610 5610 5610 5611 5611 5611 5611 5611 5611 5611 5611 5612 5612 5612 5613 5613 5614 5614 5614 5615 5615
5627 5625 5624 5622 5620 5618 5617 5615 5613 5610 5608 5606 5604 5603 5603 5603 5603 5603 5603 5604 5604 5605 5605 5605 5605 5605 5605 5606 5607 5607 5607 5608 5608 5609 5609 5609 5609 5609
5621 5620 5620 5619 5618 5616 5614 5611 5609 5605 5603 5601 5599 5598 5597 5597 5597 5597 5597 5597 5598 5599 5599 5599 5600 5600 5600 5601 5602 5602 5602 5603 5603 5604 5604 5604 5604 5604
5614 5614 5614 5613 5613 5612 5611 5610 5608 5604 5600 5597 5595 5595 5595 5594 5594 5593 5591 5590 5591 5594 5593 5594 5594 5594 5595 5596 5597 5598 5598 5598 5599 5599 5599 5599 5599 5598
5609 5608 5609 5608 5607 5605 5605 5604 5603 5603 5602 5598 5594 5594 5593 5593 5591 5589 5588 5587 5587 5590 5589 5588 5589 5589 5591 5592 5592 5593 5593 5594 5595 5595 5595 5594 5594 5593
5603 5603 5602 5602 5601 5600 5598 5597 5597 5596 5596 5596 5595 5595 5594 5592 5590 5589 5587 5584 5584 5584 5584 5583 5584 5584 5587 5588 5588 5588 5589 5589 5589 5590 5590 5590 5589 5588
5597 5597 5597 5596 5596 5595 5593 5591 5590 5590 5591 5591 5591 5591 5590 5589 5587 5583 5580 5578 5578 5579 5579 5578 5579 5579 5581 5582 5583 5584 5584 5584 5585 5585 5585 5585 5584 5583
5590 5590 5591 5591 5591 5590 5588 5586 5584 5584 5584 5584 5584 5584 5583 5583 5582 5580 5578 5574 5572 5573 5575 5574 5573 5573 5574 5577 5578 5579 5579 5579 5580 5580 5580 5579 5578 5577
5584 5584 5584 5585 5585 5584 5583 5582 5581 5580 5578 5577 5576 5576 5576 5575 5575 5575 5574 5573 5570 5569 5571 5570 5568 5567 5567 5568 5571 5572 5573 5573 5574 5574 5574 5573 5572 5571
5577 5578 5578 5578 5578 5578 5577 5577 5576 5574 5571 5570 5568 5568 5568 5568 5568 5569 5569 5568 5568 5568 5568 5567 5565 5563 5562 5561 5563 5565 5566 5567 5567 5568 5568 5567 5566 5565
5570 5571 5571 5571 5570 5569 5569 5569 5567 5565 5563 5562 5562 5562 5562 5562 5562 5562 5562 5562 5562 5562 5562 5563 5562 5560 5559 5558 5557 5558 5558 5560 5561 5562 5562 5561 5561 5560
5561 5561 5562 5561 5561 5561 5560 5559 5558 5557 5556 5556 5555 5555 5555 5555 5555 5555 5554 5554 5554 5555 5556 5557 5557 5556 5554 5554 5553 5552 5553 5553 5555 5555 5555 5554 5554 5554
5552 5551 5550 5549 5549 5549 5549 5549 5548 5548 5548 5548 5547 5547 5547 5548 5548 5548 5548 5547 5546 5547 5548 5549 5549 5549 5550 5549 5547 5548 5548 5548 5549 5549 5547 5547 5548 5547
5542 5540 5539 5539 5539 5540 5539 5539 5540 5540 5540 5540 5540 5540 5540 5540 5541 5541 5541 5540 5540 5541 5541 5541 5541 5540 5540 5542 5543 5543 5543 5543 5543 5542 5540 5539 5540 5541
5532 5532 5531 5531 5531 5531 5531 5531 5531 5532 5532 5532 5532 5532 5532 5533 5533 5534 5534 5534 5534 5535 5535 5535 5533 5532 5532 5535 5537 5537 5536 5536 5535 5534 5533 5533 5533 5534
5523 5523 5523 5523 5523 5523 5523 5523 5523 5523 5523 5523 5523 5523 5523 5524 5525 5526 5526 5526 5527 5527 5527 5527 5526 5527 5527 5529 5529 5530 5530 5529 5528 5526 5526 5525 5525 5526
5515 5515 5515 5515 5515 5515 5515 5515 5515 5514 5514 5514 5514 5514 5515 5515 5516 5517 5518 5519 5519 5519 5520 5522 5523 5522 5521 5519 5519 5521 5521 5521 5522 5520 5518 5516 5515 5515
5508 5508 5508 5508 5508 5508 5507 5507 5506 5506 5506 5506 5506 5506 5506 5506 5507 5508 5509 5509 5511 5512 5513 5514 5514 5513 5512 5512 5512 5512 5512 5512 5512 5511 5511 5511 5508 5508
5501 5501 5501 5500 5500 5500 5500 5499 5499 5499 5499 5499 5499 5499 5499 5499 5499 5500 5500 5501 5502 5503 5504 5504 5504 5504 5504 5504 5504 5504 5503 5502 5501 5501 5501 5502 5502 5502